Total_Precipitation_Accumulation
0.07 0.18 0.33 0.41 0.69 1.27 1.31 1.04 0.61 0.39 0.40 0.46 0.47 0.48 0.61 0.74 0.98 1.81 1.78 1.56 1.03 0.90 1.10 1.15 1.14 0.98 0.89 0.89 0.92 0.88 0.80 0.75 0.81 0.84 0.90 1.00 1.08 1.04 1.02 1.13 1.26 1.35 1.41 1.47 1.57 1.56 1.47 1.23 1.04
0.09 0.17 0.29 0.38 0.91 1.49 1.28 0.95 0.54 0.42 0.35 0.44 0.54 0.48 0.62 0.68 0.65 1.07 1.41 1.26 0.81 0.68 0.82 0.85 0.91 0.85 0.73 0.65 0.69 0.79 0.77 0.77 0.83 0.92 1.05 1.17 1.28 1.24 1.25 1.27 1.31 1.39 1.40 1.43 1.48 1.42 1.24 1.04 0.91
0.07 0.13 0.25 0.38 0.89 1.09 0.88 0.64 0.38 0.34 0.28 0.33 0.46 0.40 0.59 0.90 0.79 1.00 1.15 0.96 0.69 0.60 0.69 0.78 0.72 0.64 0.64 0.59 0.59 0.72 0.82 0.86 0.85 0.93 1.05 1.20 1.42 1.44 1.48 1.51 1.58 1.55 1.44 1.36 1.33 1.28 1.08 0.90 0.79
0.05 0.11 0.19 0.32 0.58 0.63 0.47 0.42 0.31 0.29 0.28 0.28 0.39 0.53 0.81 0.82 0.76 0.90 0.89 0.79 0.55 0.50 0.56 0.57 0.67 0.66 0.63 0.62 0.62 0.67 0.77 0.85 0.87 0.90 1.05 1.20 1.45 1.62 1.67 1.62 1.64 1.57 1.38 1.28 1.20 1.11 0.91 0.79 0.75
0.03 0.10 0.20 0.27 0.34 0.43 0.38 0.34 0.28 0.29 0.27 0.32 0.44 0.78 1.18 1.03 0.77 0.75 0.74 0.67 0.54 0.47 0.54 0.55 0.62 0.64 0.64 0.62 0.68 0.72 0.71 0.79 0.79 0.76 0.87 1.07 1.30 1.60 1.63 1.57 1.51 1.37 1.28 1.24 1.16 1.01 0.83 0.79 0.80
0.02 0.06 0.17 0.19 0.24 0.30 0.31 0.26 0.26 0.24 0.27 0.39 0.57 0.86 1.18 1.13 0.97 0.93 0.93 0.79 0.75 0.58 0.49 0.56 0.66 0.66 0.63 0.59 0.64 0.66 0.68 0.70 0.73 0.72 0.79 0.97 1.16 1.32 1.38 1.35 1.28 1.19 1.19 1.16 1.10 0.97 0.84 0.76 0.73
0.02 0.04 0.09 0.11 0.16 0.20 0.23 0.21 0.22 0.23 0.32 0.49 0.66 0.99 1.17 1.31 1.19 1.06 1.20 1.27 1.06 0.78 0.62 0.59 0.58 0.54 0.56 0.60 0.62 0.66 0.69 0.76 0.80 0.80 0.88 1.05 1.08 1.14 1.15 1.18 1.17 1.16 1.14 1.13 1.02 0.87 0.74 0.67 0.63
0.02 0.04 0.07 0.07 0.09 0.16 0.15 0.16 0.17 0.22 0.36 0.46 0.62 1.01 1.29 1.19 1.21 1.24 1.41 1.54 1.45 1.07 0.86 0.71 0.70 0.69 0.59 0.58 0.68 0.74 0.81 0.89 0.96 0.98 1.05 1.19 1.18 1.15 1.20 1.16 1.16 1.16 1.20 1.16 1.01 0.79 0.65 0.62 0.63
0.02 0.04 0.05 0.05 0.06 0.11 0.10 0.15 0.19 0.17 0.23 0.40 0.57 0.85 0.95 0.89 1.02 1.17 1.39 1.57 1.74 1.51 1.13 0.93 0.85 0.87 0.83 0.70 0.72 0.87 0.94 1.04 1.10 1.25 1.37 1.54 1.56 1.40 1.50 1.36 1.41 1.36 1.38 1.30 1.16 0.99 0.86 0.78 0.74
0.01 0.02 0.03 0.03 0.04 0.05 0.08 0.13 0.18 0.16 0.35 0.61 0.73 0.84 0.76 0.89 0.99 1.19 1.34 1.45 1.62 1.68 1.26 1.13 0.96 0.86 0.87 0.99 1.25 1.34 1.14 1.27 1.51 1.73 1.86 2.10 2.06 1.95 1.60 1.69 1.81 1.91 2.02 1.87 1.71 1.61 1.27 1.08 1.02
0.01 0.02 0.02 0.02 0.02 0.03 0.08 0.08 0.14 0.18 0.50 0.96 1.11 1.13 1.04 0.99 1.11 1.36 1.59 1.65 1.53 1.59 1.35 1.27 1.24 1.22 1.11 1.26 1.45 1.54 1.52 1.68 1.81 1.89 2.00 2.15 1.88 1.78 1.77 1.91 2.14 2.26 2.32 2.18 2.23 2.21 1.88 1.81 1.81
0.00 0.01 0.01 0.02 0.01 0.03 0.06 0.08 0.12 0.21 0.50 0.80 1.07 1.04 1.18 1.14 1.22 1.46 1.77 1.94 1.94 2.06 1.82 1.64 1.65 1.56 1.48 1.45 1.59 1.65 1.70 1.72 1.85 1.98 1.92 2.03 2.16 2.13 2.18 2.37 2.36 2.44 2.56 2.83 2.50 2.63 2.48 2.31 2.18
0.00 0.01 0.01 0.02 0.02 0.03 0.07 0.15 0.15 0.25 0.37 0.57 0.83 0.83 0.88 1.18 1.54 1.91 2.26 2.25 2.40 2.61 2.56 2.29 2.02 1.86 1.81 1.93 1.94 1.84 1.91 1.96 2.07 2.22 2.15 2.15 2.39 2.47 2.52 2.50 2.58 2.37 2.47 2.77 2.85 2.68 2.87 2.95 2.74
0.00 0.01 0.01 0.02 0.03 0.04 0.09 0.21 0.28 0.36 0.44 0.51 0.77 1.00 1.05 1.39 1.73 2.27 2.91 2.81 2.60 2.80 2.88 2.67 2.48 2.34 2.29 2.43 2.51 2.40 2.20 2.37 2.45 2.44 2.28 2.33 2.57 2.84 2.95 2.81 2.86 2.65 2.54 2.70 2.81 2.82 3.38 3.31 3.16
0.01 0.02 0.03 0.06 0.07 0.10 0.16 0.37 0.51 0.51 0.49 0.57 0.87 1.18 1.40 1.57 1.90 2.23 2.60 2.93 3.07 3.18 3.09 3.02 2.98 2.89 2.92 2.89 2.86 2.66 2.58 2.48 2.56 2.63 2.65 2.61 2.65 2.96 3.07 3.11 3.05 2.87 2.72 2.86 2.90 3.11 3.36 3.10 2.96
0.02 0.03 0.07 0.11 0.11 0.13 0.22 0.61 0.61 0.51 0.52 0.83 1.03 1.36 1.65 1.73 1.99 2.39 2.73 3.25 3.51 3.55 3.52 3.50 3.33 3.36 3.38 3.35 3.25 3.08 2.93 2.75 2.59 2.58 2.72 2.74 2.82 3.03 3.20 3.06 2.94 3.06 3.07 3.18 3.36 3.43 3.41 3.28 3.15
0.05 0.08 0.13 0.14 0.13 0.12 0.20 0.46 0.59 0.55 0.74 1.02 1.26 1.57 1.87 2.12 2.55 3.03 3.28 3.39 3.75 4.06 4.21 4.22 4.11 3.91 3.68 3.63 3.62 3.65 3.59 3.33 3.01 2.90 2.89 2.89 2.78 2.89 3.13 3.09 3.14 3.19 3.24 3.28 3.00 3.43 3.41 3.41 3.26
0.06 0.08 0.13 0.17 0.15 0.15 0.25 0.41 0.52 0.60 0.83 1.24 1.62 1.86 2.13 2.53 3.01 3.34 3.62 3.95 4.09 4.36 4.85 4.80 4.60 4.48 4.40 4.30 4.07 4.07 3.83 3.51 3.38 3.32 3.39 3.20 3.06 3.01 3.22 3.19 3.26 3.29 3.38 3.40 3.35 3.56 3.49 3.32 3.22
0.06 0.09 0.15 0.18 0.16 0.18 0.34 0.54 0.58 0.76 1.06 1.37 1.72 1.96 2.29 2.62 2.98 3.39 3.48 3.71 4.03 4.64 5.09 5.31 5.31 5.11 4.81 4.43 4.04 3.87 3.78 3.73 3.56 3.43 3.30 3.16 3.07 3.15 3.45 3.33 3.57 3.50 3.28 3.23 3.33 3.54 3.39 3.13 3.16
0.07 0.11 0.15 0.17 0.15 0.18 0.32 0.53 0.65 1.01 1.33 1.39 1.56 1.70 1.90 2.33 2.66 2.98 3.15 3.23 3.64 4.23 4.66 4.80 4.57 4.44 4.27 4.02 3.92 3.91 4.11 3.80 3.53 3.42 3.28 3.00 2.98 3.08 3.09 3.36 3.25 3.25 3.33 3.24 3.25 3.47 3.27 2.85 2.96
0.05 0.07 0.12 0.18 0.17 0.24 0.35 0.68 0.89 1.14 1.28 1.32 1.42 1.58 1.69 1.97 2.29 2.60 2.71 2.87 3.08 3.18 3.43 3.60 3.77 3.69 3.58 3.56 3.54 3.59 3.80 3.56 3.37 3.25 3.17 2.82 2.68 2.69 2.80 2.88 2.94 3.24 3.18 3.21 3.28 3.22 3.11 2.81 2.74
0.06 0.07 0.07 0.09 0.17 0.31 0.45 0.99 1.24 1.21 1.26 1.40 1.40 1.39 1.64 1.93 1.93 2.04 2.25 2.42 2.67 2.79 2.98 3.04 3.08 3.20 3.23 3.31 3.22 3.06 2.96 2.87 2.82 2.88 2.84 2.80 2.68 2.59 2.62 2.65 2.69 2.76 2.69 2.83 2.58 2.69 2.91 3.03 2.76
0.05 0.05 0.06 0.10 0.20 0.33 0.45 0.77 1.17 1.51 1.58 1.40 1.34 1.24 1.44 1.58 1.49 1.48 1.64 1.78 2.00 2.19 2.42 2.58 2.70 2.80 2.92 2.98 2.90 2.86 2.64 2.63 2.68 2.69 2.74 2.70 2.67 2.65 2.62 2.60 2.56 2.43 2.32 2.45 2.46 2.64 2.65 2.67 2.62
0.04 0.07 0.13 0.25 0.43 0.67 0.57 0.71 1.12 1.48 1.72 1.46 1.26 1.18 1.28 1.26 1.23 1.34 1.45 1.55 1.68 1.92 2.10 2.25 2.40 2.46 2.57 2.62 2.65 2.62 2.57 2.57 2.57 2.54 2.54 2.53 2.55 2.46 2.42 2.39 2.38 2.25 2.24 2.32 2.40 2.48 2.42 2.46 2.58
0.06 0.13 0.46 0.83 1.11 1.14 0.73 0.79 1.15 1.15 1.18 1.20 1.15 1.19 1.20 1.13 1.06 1.07 1.18 1.32 1.49 1.69 1.81 1.87 2.01 2.10 2.11 2.16 2.22 2.23 2.31 2.43 2.30 2.21 2.23 2.24 2.09 1.99 2.07 2.01 2.09 2.08 2.12 2.16 2.27 2.34 2.31 2.42 2.58
0.11 0.15 0.51 0.79 0.85 0.94 0.82 1.09 1.42 1.14 1.06 0.99 1.06 1.16 1.14 1.00 0.91 0.95 1.07 1.13 1.20 1.37 1.55 1.59 1.70 1.81 1.96 1.99 1.98 2.01 2.03 2.05 1.95 2.00 1.98 1.95 1.73 1.66 1.84 1.99 2.02 2.01 2.01 2.05 2.28 2.15 2.16 2.33 2.38
0.15 0.18 0.23 0.45 0.51 0.71 0.92 1.21 1.38 1.08 1.05 1.16 1.28 1.25 1.18 0.95 0.78 0.79 0.82 0.87 0.89 0.99 1.12 1.25 1.51 1.66 1.75 1.82 1.83 1.77 1.74 1.78 1.79 1.84 1.94 1.86 1.82 1.69 1.78 1.86 1.97 2.00 2.09 2.20 2.28 2.15 2.28 2.50 2.39
0.15 0.16 0.19 0.36 0.54 0.75 0.89 1.26 1.56 1.51 1.34 1.28 1.35 1.19 0.91 0.77 0.65 0.60 0.62 0.63 0.70 0.79 0.87 1.01 1.24 1.35 1.44 1.60 1.66 1.53 1.69 1.80 1.82 1.80 1.70 1.68 1.71 1.72 1.67 1.67 1.76 1.78 1.86 2.02 2.16 2.09 2.23 2.48 2.44
0.19 0.21 0.29 0.40 0.44 0.65 1.02 1.23 1.18 1.23 1.16 1.21 1.19 1.02 0.76 0.63 0.57 0.57 0.58 0.61 0.67 0.72 0.83 1.00 1.23 1.37 1.37 1.46 1.55 1.57 1.67 1.79 1.81 1.73 1.63 1.62 1.63 1.68 1.62 1.63 1.66 1.65 1.62 1.70 1.85 1.86 2.06 2.11 2.11
0.17 0.19 0.28 0.42 0.42 0.46 0.70 0.92 0.67 0.72 0.75 0.81 0.85 0.74 0.64 0.61 0.59 0.64 0.68 0.69 0.69 0.78 0.88 1.01 1.16 1.34 1.40 1.51 1.68 1.82 1.77 1.72 1.72 1.71 1.62 1.54 1.48 1.55 1.63 1.70 1.60 1.48 1.52 1.63 1.65 1.72 1.94 1.99 1.96